Flag for Guernsey Weather past 2 weeks in St. Peter Port, Guernsey

Now
63 °F

Drizzle. Broken clouds.


Feels Like: 63 °F
Forecast: 60 / 66 °F
Wind: 8 mph from Southwest

Location: Guernsey Airport

Current Time: Aug 3, 2015 at 9:41:16 AM

Latest Report: Aug 3, 2015 at 9:20 AM


Visibility: 1 mi

Pressure: 29.89 "Hg

Humidity: 100%

Dew point: 63 °F

Location of St. Peter PortLocation

Historic Weather in St. Peter Port — Graph

°F

St. Peter Port temperature yesterday

Maximum temperature yesterday: 77 °F (at 3:50 PM)
Minimum temperature yesterday: 52 °F (at 3:50 AM)
Average temperature yesterday: 67 °F

Past Weeks' High & Low Weather Summary

 TemperatureHumidityPressure
High77 °F (Aug 2, 3:50 PM)100% (Jul 19, 6:50 PM)30.15 "Hg (Jul 19, 6:50 PM)
Low52 °F (Aug 1, 4:20 AM)39% (Aug 2, 2:50 PM)29.59 "Hg (Jul 24, 3:50 PM)
Average61 °F79%29.94 "Hg
* Reported Jul 19 8:20 AM — Aug 3 8:20 AM, St. Peter Port, Weather by CustomWeather, © 2015

Note: Actual official high and low records may vary slightly from our data, if they occured in-between our weather recording intervals... More about our weather records

Advertising

St. Peter Port weather history for previous 24 hours

 ConditionsComfort  
Time TempWeatherWind HumidityBarometerVisibility
8:20 AM
Mon, Aug 3
63 °FPartly sunny.8 mph94%29.89 "HgN/A
7:50 AM63 °FPartly sunny.9 mph94%29.89 "HgN/A
7:20 AM63 °FBroken clouds.8 mph94%29.89 "HgN/A
6:50 AM63 °FPartly sunny.12 mph94%29.89 "HgN/A
6:20 AM63 °FPassing clouds.12 mph94%29.86 "HgN/A
5:50 AM63 °FLight rain. Passing clouds.10 mph94%29.86 "HgN/A
5:20 AM63 °FPassing clouds.13 mph94%29.86 "HgN/A
4:50 AM63 °FPassing clouds.15 mph94%29.86 "HgN/A
4:20 AM63 °FPassing clouds.14 mph94%29.86 "HgN/A
3:50 AM63 °FPassing clouds.13 mph94%29.86 "HgN/A
10:50 PM
Sun, Aug 2
66 °FClear.14 mph68%29.86 "Hg10 mi
10:20 PM68 °FClear.15 mph60%29.83 "Hg10 mi
9:50 PM68 °FClear.14 mph60%29.86 "Hg10 mi
9:20 PM70 °FPassing clouds.10 mph57%29.83 "HgN/A
8:50 PM70 °FSunny.7 mph53%29.83 "Hg10 mi
8:20 PM70 °FSunny.6 mph57%29.83 "Hg10 mi
7:50 PM72 °FSunny.6 mph53%29.83 "Hg10 mi
7:20 PM73 °FSunny.8 mph50%29.86 "Hg10 mi
6:50 PM75 °FSunny.8 mph44%29.86 "Hg10 mi
6:20 PM75 °FSunny.9 mph44%29.86 "Hg10 mi
5:50 PM75 °FSunny.10 mph44%29.86 "Hg10 mi
5:20 PM75 °FSunny.10 mph41%29.89 "Hg10 mi
4:50 PM77 °FSunny.10 mph39%29.89 "Hg10 mi
4:20 PM75 °FSunny.13 mph41%29.92 "Hg10 mi
3:50 PM77 °FSunny.14 mph39%29.92 "Hg10 mi
3:20 PM75 °FSunny.15 mph41%29.92 "Hg10 mi
2:50 PM75 °FSunny.15 mph39%29.92 "Hg10 mi
2:20 PM73 °FSunny.15 mph44%29.95 "Hg10 mi
1:50 PM72 °FSunny.15 mph47%29.95 "Hg10 mi
1:20 PM70 °FSunny.14 mph53%29.98 "Hg10 mi
12:50 PM68 °FSunny.13 mph64%29.98 "Hg10 mi
12:20 PM66 °FSunny.12 mph68%29.98 "Hg10 mi
11:50 AM64 °FSunny.10 mph73%29.98 "Hg10 mi
11:20 AM64 °FSunny.12 mph73%30.01 "Hg10 mi
10:50 AM64 °FSunny.13 mph73%30.01 "Hg10 mi
10:20 AM64 °FSunny.13 mph73%30.01 "Hg10 mi
9:50 AM63 °FSunny.13 mph77%30.01 "Hg10 mi
9:20 AM63 °FSunny.12 mph77%30.01 "Hg10 mi
Weather by CustomWeather, © 2015

See weather overviewHow to use our weather pages